Time,TemperatureF,DewpointF,PressureIn,WindDirection,WindDirectionDegrees,WindSpeedMPH,WindSpeedGustMPH,Humidity,HourlyPrecipIn,Conditions,Clouds,dailyrainin,SoftwareType,DateUTC
2013-04-02 00:00:00,30.0,15.8,29.94,WSW,256,11.0,13.0,55,0.00,,CLR,0.07,VWS V14.01,2013-04-02 04:00:00,
2013-04-02 00:05:00,30.0,15.8,29.94,WNW,284,6.0,17.0,55,0.00,,FEW047,0.07,VWS V14.01,2013-04-02 04:05:00,
2013-04-02 00:10:00,30.0,15.8,29.94,WNW,288,14.0,15.0,55,0.00,,FEW047,0.00,VWS V14.01,2013-04-02 04:10:00,
2013-04-02 00:15:00,29.9,15.7,29.94,WNW,284,12.0,15.0,55,0.00,,FEW047,0.00,VWS V14.01,2013-04-02 04:15:00,
2013-04-02 00:20:00,29.8,18.0,29.94,WSW,240,9.0,11.0,61,0.00,,FEW047,0.00,VWS V14.01,2013-04-02 04:20:00,
2013-04-02 00:25:00,29.7,17.9,29.95,West,267,6.0,11.0,61,0.00,,FEW047,0.00,VWS V14.01,2013-04-02 04:25:00,
2013-04-02 00:30:00,29.9,16.1,29.95,West,265,5.0,22.0,56,0.00,,,0.00,VWS V14.01,2013-04-02 04:30:00,
2013-04-02 00:31:00,29.8,16.4,29.95,WNW,290,8.0,12.0,57,0.00,,FEW047,0.00,VWS V14.01,2013-04-02 04:31:00,
2013-04-02 00:35:00,29.9,16.5,29.95,West,279,7.0,22.0,57,0.00,,FEW047,0.00,VWS V14.01,2013-04-02 04:35:00,
2013-04-02 00:40:00,29.7,16.3,29.95,WNW,290,9.0,13.0,57,0.00,,,0.00,VWS V14.01,2013-04-02 04:40:00,
2013-04-02 00:41:00,29.8,16.4,29.95,NW,308,10.0,13.0,57,0.00,,FEW047,0.00,VWS V14.01,2013-04-02 04:41:00,
2013-04-02 00:46:00,29.7,16.8,29.95,WNW,290,6.0,13.0,58,0.00,,FEW047,0.00,VWS V14.01,2013-04-02 04:46:00,
2013-04-02 00:50:00,29.8,16.4,29.96,WNW,292,7.0,17.0,57,0.00,,,0.00,VWS V14.01,2013-04-02 04:50:00,
2013-04-02 00:51:00,29.7,16.4,29.95,WNW,288,6.0,17.0,57,0.00,,FEW047,0.00,VWS V14.01,2013-04-02 04:51:00,
2013-04-02 00:56:00,29.7,16.8,29.96,WNW,298,6.0,17.0,58,0.00,,FEW047,0.00,VWS V14.01,2013-04-02 04:56:00,
2013-04-02 01:00:00,29.7,16.8,29.96,WNW,286,13.0,15.0,58,0.00,,,0.00,VWS V14.01,2013-04-02 05:00:00,
2013-04-02 01:01:00,29.8,16.4,29.96,WNW,290,9.0,15.0,57,0.00,,FEW047,0.00,VWS V14.01,2013-04-02 05:01:00,
2013-04-02 01:06:00,29.7,16.4,29.96,WNW,288,5.0,15.0,57,0.00,,BKN060,0.00,VWS V14.01,2013-04-02 05:06:00,
2013-04-02 01:10:00,29.5,16.6,29.96,NW,307,3.0,18.0,58,0.00,,,0.00,VWS V14.01,2013-04-02 05:10:00,
2013-04-02 01:11:00,29.6,16.6,29.96,NW,309,7.0,13.0,58,0.00,,BKN060,0.00,VWS V14.01,2013-04-02 05:11:00,
2013-04-02 01:16:00,29.6,16.6,29.96,NW,318,12.0,18.0,58,0.00,,BKN060,0.00,VWS V14.01,2013-04-02 05:16:00,
2013-04-02 01:20:00,29.2,16.7,29.96,WNW,290,9.0,17.0,59,0.00,,,0.00,VWS V14.01,2013-04-02 05:20:00,
2013-04-02 01:21:00,29.4,16.5,29.96,West,280,9.0,12.0,58,0.00,,BKN060,0.00,VWS V14.01,2013-04-02 05:21:00,
2013-04-02 01:26:00,29.2,16.7,29.96,West,281,7.0,17.0,59,0.00,,BKN060,0.00,VWS V14.01,2013-04-02 05:26:00,
2013-04-02 01:30:00,29.0,16.5,29.96,West,277,5.0,16.0,59,0.00,,,0.00,VWS V14.01,2013-04-02 05:30:00,
2013-04-02 01:31:00,29.2,16.7,29.96,West,277,12.0,14.0,59,0.00,,BKN060,0.00,VWS V14.01,2013-04-02 05:31:00,
2013-04-02 01:36:00,29.1,16.6,29.96,West,272,6.0,16.0,59,0.00,,BKN060,0.00,VWS V14.01,2013-04-02 05:36:00,
2013-04-02 01:40:00,28.8,16.7,29.96,WNW,303,12.0,16.0,60,0.00,,,0.00,VWS V14.01,2013-04-02 05:40:00,
2013-04-02 01:41:00,29.0,16.9,29.96,WNW,296,11.0,13.0,60,0.00,,BKN060,0.00,VWS V14.01,2013-04-02 05:41:00,
2013-04-02 01:46:00,28.9,16.8,29.96,WNW,295,10.0,16.0,60,0.00,,BKN060,0.00,VWS V14.01,2013-04-02 05:46:00,
2013-04-02 01:50:00,28.5,16.8,29.96,NNW,345,6.0,14.0,61,0.00,,,0.00,VWS V14.01,2013-04-02 05:50:00,
2013-04-02 01:51:00,28.8,17.1,29.96,WNW,302,10.0,14.0,61,0.00,,BKN060,0.00,VWS V14.01,2013-04-02 05:51:00,
2013-04-02 01:56:00,28.5,16.8,29.96,NW,304,6.0,14.0,61,0.00,,BKN060,0.00,VWS V14.01,2013-04-02 05:56:00,
2013-04-02 02:00:00,28.3,17.0,29.96,NW,306,3.0,14.0,62,0.00,,,0.00,VWS V14.01,2013-04-02 06:00:00,
2013-04-02 02:01:00,28.3,17.0,29.96,WNW,291,12.0,14.0,62,0.00,,BKN060,0.00,VWS V14.01,2013-04-02 06:01:00,
2013-04-02 02:06:00,28.3,17.0,29.96,WNW,303,5.0,14.0,62,0.00,,OVC060,0.00,VWS V14.01,2013-04-02 06:06:00,
2013-04-02 02:10:00,27.9,17.0,29.96,NW,304,3.0,14.0,63,0.00,,,0.00,VWS V14.01,2013-04-02 06:10:00,
2013-04-02 02:11:00,28.1,16.8,29.96,WNW,300,5.0,6.0,62,0.00,,OVC060,0.00,VWS V14.01,2013-04-02 06:11:00,
2013-04-02 02:16:00,27.9,17.0,29.96,NW,320,2.0,14.0,63,0.00,,OVC060,0.00,VWS V14.01,2013-04-02 06:16:00,
2013-04-02 02:20:00,27.7,16.8,29.96,NW,320,9.0,15.0,63,0.00,,,0.00,VWS V14.01,2013-04-02 06:20:00,
2013-04-02 02:21:00,27.7,16.8,29.96,WNW,288,14.0,15.0,63,0.00,,OVC060,0.00,VWS V14.01,2013-04-02 06:21:00,
2013-04-02 02:26:00,27.8,16.9,29.96,WNW,302,4.0,15.0,63,0.00,,OVC060,0.00,VWS V14.01,2013-04-02 06:26:00,
2013-04-02 02:30:00,27.5,16.6,29.95,WNW,294,13.0,17.0,63,0.00,,,0.00,VWS V14.01,2013-04-02 06:30:00,
2013-04-02 02:31:00,27.6,16.7,29.96,WNW,290,7.0,14.0,63,0.00,,OVC055,0.00,VWS V14.01,2013-04-02 06:31:00,
2013-04-02 02:36:00,27.5,16.6,29.95,WNW,284,12.0,14.0,63,0.00,,OVC055,0.00,VWS V14.01,2013-04-02 06:36:00,
2013-04-02 02:40:00,27.2,16.3,29.95,WNW,294,10.0,14.0,63,0.00,,,0.00,VWS V14.01,2013-04-02 06:40:00,
2013-04-02 02:42:00,27.4,16.5,29.95,WNW,290,4.0,14.0,63,0.00,,OVC055,0.00,VWS V14.01,2013-04-02 06:42:00,
2013-04-02 02:47:00,27.3,16.4,29.95,WNW,290,5.0,14.0,63,0.00,,OVC055,0.00,VWS V14.01,2013-04-02 06:47:00,
2013-04-02 02:50:00,27.1,16.6,29.95,NW,317,7.0,17.0,64,0.00,,,0.00,VWS V14.01,2013-04-02 06:50:00,
2013-04-02 02:52:00,27.1,16.6,29.95,WSW,251,2.0,10.0,64,0.00,,OVC055,0.00,VWS V14.01,2013-04-02 06:52:00,
2013-04-02 02:57:00,27.1,16.6,29.95,NNW,327,7.0,17.0,64,0.00,,OVC055,0.00,VWS V14.01,2013-04-02 06:57:00,
2013-04-02 03:00:00,26.9,16.4,29.95,NW,304,12.0,18.0,64,0.00,,,0.00,VWS V14.01,2013-04-02 07:00:00,
2013-04-02 03:02:00,27.0,16.5,29.95,WNW,291,9.0,18.0,64,0.00,,OVC055,0.00,VWS V14.01,2013-04-02 07:02:00,
2013-04-02 03:07:00,26.9,16.4,29.95,WNW,288,16.0,18.0,64,0.00,,OVC055,0.00,VWS V14.01,2013-04-02 07:07:00,
2013-04-02 03:10:00,26.6,16.4,29.95,WNW,294,10.0,15.0,65,0.00,,,0.00,VWS V14.01,2013-04-02 07:10:00,
2013-04-02 03:12:00,26.9,16.4,29.95,West,280,10.0,15.0,64,0.00,,OVC055,0.00,VWS V14.01,2013-04-02 07:12:00,
2013-04-02 03:17:00,26.6,16.4,29.95,WNW,288,8.0,15.0,65,0.00,,OVC055,0.00,VWS V14.01,2013-04-02 07:17:00,
2013-04-02 03:20:00,26.5,16.3,29.94,WNW,294,13.0,14.0,65,0.00,,,0.00,VWS V14.01,2013-04-02 07:20:00,
2013-04-02 03:22:00,26.5,16.0,29.94,WNW,287,5.0,12.0,64,0.00,,OVC055,0.00,VWS V14.01,2013-04-02 07:22:00,
2013-04-02 03:27:00,26.5,16.3,29.94,West,278,12.0,13.0,65,0.00,,OVC055,0.00,VWS V14.01,2013-04-02 07:27:00,
2013-04-02 03:30:00,26.3,16.1,29.95,WNW,292,13.0,18.0,65,0.00,,,0.00,VWS V14.01,2013-04-02 07:30:00,
2013-04-02 03:32:00,26.4,16.2,29.94,WNW,300,10.0,16.0,65,0.00,,OVC055,0.00,VWS V14.01,2013-04-02 07:32:00,
2013-04-02 03:37:00,26.3,16.1,29.95,WNW,287,13.0,18.0,65,0.00,,OVC055,0.00,VWS V14.01,2013-04-02 07:37:00,
2013-04-02 03:40:00,26.2,16.1,29.95,WNW,292,9.0,22.0,65,0.00,,,0.00,VWS V14.01,2013-04-02 07:40:00,
2013-04-02 03:42:00,26.3,16.1,29.95,NW,304,13.0,22.0,65,0.00,,OVC055,0.00,VWS V14.01,2013-04-02 07:42:00,
2013-04-02 03:47:00,26.2,16.1,29.95,WNW,292,9.0,22.0,65,0.00,,OVC055,0.00,VWS V14.01,2013-04-02 07:47:00,
2013-04-02 03:50:00,26.0,16.2,29.95,WNW,288,9.0,16.0,66,0.00,,,0.00,VWS V14.01,2013-04-02 07:50:00,
2013-04-02 03:52:00,26.1,16.3,29.95,West,272,6.0,16.0,66,0.00,,OVC055,0.00,VWS V14.01,2013-04-02 07:52:00,
2013-04-02 03:57:00,26.0,16.2,29.95,West,273,12.0,12.0,66,0.00,,OVC055,0.00,VWS V14.01,2013-04-02 07:57:00,
2013-04-02 04:00:00,25.6,15.8,29.95,WNW,289,10.0,13.0,66,0.00,,,0.00,VWS V14.01,2013-04-02 08:00:00,
2013-04-02 04:02:00,25.9,16.1,29.95,NW,319,10.0,13.0,66,0.00,,FEW045,0.00,VWS V14.01,2013-04-02 08:02:00,
2013-04-02 04:07:00,25.6,15.8,29.95,WNW,294,9.0,10.0,66,0.00,,FEW045,0.00,VWS V14.01,2013-04-02 08:07:00,
2013-04-02 04:10:00,25.5,16.1,29.95,WNW,291,5.0,15.0,67,0.00,,,0.00,VWS V14.01,2013-04-02 08:10:00,
2013-04-02 04:12:00,25.6,16.2,29.95,WNW,286,7.0,15.0,67,0.00,,FEW045,0.00,VWS V14.01,2013-04-02 08:12:00,
2013-04-02 04:17:00,25.5,16.1,29.95,WNW,291,5.0,15.0,67,0.00,,FEW045,0.00,VWS V14.01,2013-04-02 08:17:00,
2013-04-02 04:20:00,25.2,16.1,29.95,WNW,300,6.0,14.0,68,0.00,,,0.00,VWS V14.01,2013-04-02 08:20:00,
2013-04-02 04:22:00,25.4,16.0,29.95,WNW,296,5.0,14.0,67,0.00,,FEW045,0.00,VWS V14.01,2013-04-02 08:22:00,
2013-04-02 04:27:00,25.2,16.1,29.95,WNW,300,10.0,10.0,68,0.00,,FEW045,0.00,VWS V14.01,2013-04-02 08:27:00,
2013-04-02 04:30:00,25.3,16.2,29.95,WNW,290,6.0,15.0,68,0.00,,,0.00,VWS V14.01,2013-04-02 08:30:00,
2013-04-02 04:32:00,25.2,16.1,29.95,WNW,295,10.0,15.0,68,0.00,,FEW045,0.00,VWS V14.01,2013-04-02 08:32:00,
2013-04-02 04:37:00,25.3,16.2,29.95,WNW,290,5.0,6.0,68,0.00,,FEW045,0.00,VWS V14.01,2013-04-02 08:37:00,
2013-04-02 04:40:00,25.1,16.4,29.95,WNW,292,10.0,13.0,69,0.00,,,0.00,VWS V14.01,2013-04-02 08:40:00,
2013-04-02 04:42:00,25.3,16.2,29.95,WSW,257,6.0,13.0,68,0.00,,FEW045,0.00,VWS V14.01,2013-04-02 08:42:00,
2013-04-02 04:47:00,25.1,16.4,29.95,West,273,9.0,10.0,69,0.00,,FEW045,0.00,VWS V14.01,2013-04-02 08:47:00,
2013-04-02 04:50:00,25.1,16.4,29.95,West,268,6.0,15.0,69,0.00,,,0.00,VWS V14.01,2013-04-02 08:50:00,
2013-04-02 04:52:00,25.1,16.4,29.95,NW,306,7.0,15.0,69,0.00,,FEW045,0.00,VWS V14.01,2013-04-02 08:52:00,
2013-04-02 04:57:00,25.1,16.4,29.95,WNW,283,9.0,9.0,69,0.00,,FEW045,0.00,VWS V14.01,2013-04-02 08:57:00,
2013-04-02 05:00:00,25.0,16.6,29.96,WNW,301,8.0,13.0,70,0.00,,,0.00,VWS V14.01,2013-04-02 09:00:00,
2013-04-02 05:02:00,24.9,16.5,29.95,WNW,286,9.0,12.0,70,0.00,,SCT038,0.00,VWS V14.01,2013-04-02 09:02:00,
2013-04-02 05:07:00,25.0,16.6,29.96,WNW,300,6.0,8.0,70,0.00,,SCT038,0.00,VWS V14.01,2013-04-02 09:07:00,
2013-04-02 05:10:00,24.9,16.5,29.96,WNW,288,9.0,16.0,70,0.00,,,0.00,VWS V14.01,2013-04-02 09:10:00,
2013-04-02 05:12:00,24.9,16.5,29.96,WNW,302,13.0,13.0,70,0.00,,SCT038,0.00,VWS V14.01,2013-04-02 09:12:00,
2013-04-02 05:17:00,24.9,16.5,29.96,NW,307,14.0,14.0,70,0.00,,SCT038,0.00,VWS V14.01,2013-04-02 09:17:00,
2013-04-02 05:20:00,24.9,16.8,29.97,WNW,290,7.0,18.0,71,0.00,,,0.00,VWS V14.01,2013-04-02 09:20:00,
2013-04-02 05:23:00,24.9,16.8,29.97,WNW,293,17.0,18.0,71,0.00,,SCT038,0.00,VWS V14.01,2013-04-02 09:23:00,
2013-04-02 05:28:00,24.8,16.8,29.97,WNW,291,13.0,13.0,71,0.00,,SCT038,0.00,VWS V14.01,2013-04-02 09:28:00,
2013-04-02 05:30:00,24.8,16.8,29.97,WNW,301,5.0,19.0,71,0.00,,,0.00,VWS V14.01,2013-04-02 09:30:00,
2013-04-02 05:33:00,24.8,16.8,29.97,WNW,303,7.0,19.0,71,0.00,,SCT038,0.00,VWS V14.01,2013-04-02 09:33:00,
2013-04-02 05:38:00,24.8,16.8,29.97,WNW,288,13.0,13.0,71,0.00,,SCT038,0.00,VWS V14.01,2013-04-02 09:38:00,
2013-04-02 05:40:00,24.5,16.8,29.97,West,263,12.0,17.0,72,0.00,,,0.00,VWS V14.01,2013-04-02 09:40:00,
2013-04-02 05:43:00,24.7,16.6,29.97,West,275,5.0,17.0,71,0.00,,SCT038,0.00,VWS V14.01,2013-04-02 09:43:00,
2013-04-02 05:48:00,24.5,16.8,29.97,NW,325,6.0,12.0,72,0.00,,SCT038,0.00,VWS V14.01,2013-04-02 09:48:00,
2013-04-02 05:50:00,24.5,17.1,29.97,NW,320,5.0,16.0,73,0.00,,,0.00,VWS V14.01,2013-04-02 09:50:00,
2013-04-02 05:53:00,24.5,16.8,29.97,NW,306,15.0,16.0,72,0.00,,SCT038,0.00,VWS V14.01,2013-04-02 09:53:00,
2013-04-02 05:58:00,24.5,17.1,29.97,NW,313,4.0,6.0,73,0.00,,SCT038,0.00,VWS V14.01,2013-04-02 09:58:00,
2013-04-02 06:00:00,24.5,17.4,29.98,NW,318,10.0,18.0,74,0.00,,,0.00,VWS V14.01,2013-04-02 10:00:00,
2013-04-02 06:03:00,24.5,17.1,29.97,NW,317,12.0,18.0,73,0.00,,OVC040,0.00,VWS V14.01,2013-04-02 10:03:00,
2013-04-02 06:08:00,24.5,17.4,29.98,WNW,283,6.0,10.0,74,0.00,,OVC040,0.00,VWS V14.01,2013-04-02 10:08:00,
2013-04-02 06:10:00,24.4,17.3,29.98,WNW,296,7.0,16.0,74,0.00,,,0.00,VWS V14.01,2013-04-02 10:10:00,
2013-04-02 06:13:00,24.4,17.3,29.98,NW,306,11.0,16.0,74,0.00,,OVC040,0.00,VWS V14.01,2013-04-02 10:13:00,
2013-04-02 06:18:00,24.4,17.3,29.98,NW,325,4.0,7.0,74,0.00,,OVC040,0.00,VWS V14.01,2013-04-02 10:18:00,
2013-04-02 06:20:00,24.3,17.5,29.99,WNW,293,5.0,16.0,75,0.00,,,0.00,VWS V14.01,2013-04-02 10:20:00,
2013-04-02 06:23:00,24.4,17.6,29.99,NW,317,11.0,16.0,75,0.00,,OVC040,0.00,VWS V14.01,2013-04-02 10:23:00,
2013-04-02 06:28:00,24.3,17.5,29.99,WNW,290,5.0,6.0,75,0.00,,OVC040,0.00,VWS V14.01,2013-04-02 10:28:00,
2013-04-02 06:30:00,24.2,17.7,30.00,NW,306,3.0,10.0,76,0.00,,,0.00,VWS V14.01,2013-04-02 10:30:00,
2013-04-02 06:33:00,24.3,17.5,29.99,NW,310,5.0,10.0,75,0.00,,OVC040,0.00,VWS V14.01,2013-04-02 10:33:00,
2013-04-02 06:38:00,24.2,17.7,30.00,NW,306,1.0,3.0,76,0.00,,OVC040,0.00,VWS V14.01,2013-04-02 10:38:00,
2013-04-02 06:40:00,24.1,17.6,30.00,NW,321,7.0,7.0,76,0.00,,,0.00,VWS V14.01,2013-04-02 10:40:00,
2013-04-02 06:43:00,24.2,17.7,30.00,NW,310,2.0,5.0,76,0.00,,OVC040,0.00,VWS V14.01,2013-04-02 10:43:00,
2013-04-02 06:48:00,24.1,17.6,30.00,NW,309,8.0,8.0,76,0.00,,OVC040,0.00,VWS V14.01,2013-04-02 10:48:00,
2013-04-02 06:50:00,23.8,17.7,30.00,NW,306,11.0,18.0,77,0.00,,,0.00,VWS V14.01,2013-04-02 10:50:00,
2013-04-02 06:53:00,24.0,17.9,30.00,NW,309,10.0,18.0,77,0.00,,OVC040,0.00,VWS V14.01,2013-04-02 10:53:00,
2013-04-02 06:58:00,23.8,17.7,30.00,NW,315,9.0,11.0,77,0.00,,OVC040,0.00,VWS V14.01,2013-04-02 10:58:00,
2013-04-02 07:00:00,23.7,17.9,30.01,WNW,296,9.0,14.0,78,0.00,,,0.00,VWS V14.01,2013-04-02 11:00:00,
2013-04-02 07:03:00,23.7,17.9,30.00,NW,315,11.0,14.0,78,0.00,,OVC037,0.00,VWS V14.01,2013-04-02 11:03:00,
2013-04-02 07:08:00,23.6,17.8,30.01,NNW,327,13.0,17.0,78,0.00,,OVC037,0.00,VWS V14.01,2013-04-02 11:08:00,
2013-04-02 07:10:00,23.5,17.7,30.01,WNW,295,9.0,19.0,78,0.00,,,0.00,VWS V14.01,2013-04-02 11:10:00,
2013-04-02 07:13:00,23.7,17.6,30.01,West,279,13.0,18.0,77,0.00,,OVC037,0.00,VWS V14.01,2013-04-02 11:13:00,
2013-04-02 07:18:00,23.5,17.7,30.01,WNW,295,11.0,14.0,78,0.00,,OVC037,0.00,VWS V14.01,2013-04-02 11:18:00,
2013-04-02 07:20:00,23.1,17.9,30.03,West,265,12.0,18.0,80,0.00,,,0.00,VWS V14.01,2013-04-02 11:20:00,
2013-04-02 07:23:00,23.3,18.1,30.03,WNW,287,5.0,18.0,80,0.00,,OVC037,0.00,VWS V14.01,2013-04-02 11:23:00,
2013-04-02 07:28:00,23.1,18.1,30.03,WNW,294,9.0,13.0,81,0.00,,OVC037,0.00,VWS V14.01,2013-04-02 11:28:00,
2013-04-02 07:30:00,23.1,18.1,30.04,WNW,286,8.0,13.0,81,0.00,,,0.00,VWS V14.01,2013-04-02 11:30:00,
2013-04-02 07:33:00,23.1,18.1,30.03,NW,304,6.0,13.0,81,0.00,,OVC037,0.00,VWS V14.01,2013-04-02 11:33:00,
2013-04-02 07:38:00,23.1,18.1,30.04,West,280,13.0,13.0,81,0.00,,OVC037,0.00,VWS V14.01,2013-04-02 11:38:00,
2013-04-02 07:40:00,23.1,18.7,30.04,West,277,4.0,15.0,83,0.00,,,0.00,VWS V14.01,2013-04-02 11:40:00,
2013-04-02 07:43:00,23.1,18.4,30.04,NNW,327,4.0,15.0,82,0.00,,OVC037,0.00,VWS V14.01,2013-04-02 11:43:00,
2013-04-02 07:48:00,23.0,18.6,30.04,West,262,4.0,5.0,83,0.00,,OVC037,0.00,VWS V14.01,2013-04-02 11:48:00,
2013-04-02 07:50:00,22.9,18.8,30.05,WNW,298,3.0,14.0,84,0.00,,,0.00,VWS V14.01,2013-04-02 11:50:00,
2013-04-02 07:53:00,23.0,18.9,30.05,West,279,5.0,8.0,84,0.00,,OVC037,0.00,VWS V14.01,2013-04-02 11:53:00,
2013-04-02 07:58:00,22.9,18.8,30.05,West,272,6.0,6.0,84,0.00,,OVC037,0.00,VWS V14.01,2013-04-02 11:58:00,
2013-04-02 08:00:00,22.7,18.9,30.06,West,277,4.0,12.0,85,0.00,,,0.00,VWS V14.01,2013-04-02 12:00:00,
2013-04-02 08:03:00,22.7,18.9,30.05,NNW,333,9.0,10.0,85,0.00,,OVC037,0.00,VWS V14.01,2013-04-02 12:03:00,
2013-04-02 08:08:00,22.7,18.9,30.06,West,271,5.0,6.0,85,0.00,,OVC037,0.00,VWS V14.01,2013-04-02 12:08:00,
2013-04-02 08:10:00,22.7,19.1,30.06,West,271,6.0,12.0,86,0.00,,,0.00,VWS V14.01,2013-04-02 12:10:00,
2013-04-02 08:13:00,22.7,19.1,30.06,WNW,284,6.0,12.0,86,0.00,,OVC037,0.00,VWS V14.01,2013-04-02 12:13:00,
2013-04-02 08:18:00,22.6,19.0,30.06,WNW,291,5.0,7.0,86,0.00,,OVC037,0.00,VWS V14.01,2013-04-02 12:18:00,
2013-04-02 08:20:00,22.4,18.9,30.07,West,279,10.0,14.0,86,0.00,,,0.00,VWS V14.01,2013-04-02 12:20:00,
2013-04-02 08:23:00,22.6,19.0,30.07,WNW,302,2.0,7.0,86,0.00,,OVC037,0.00,VWS V14.01,2013-04-02 12:23:00,
2013-04-02 08:28:00,22.2,18.7,30.07,WNW,290,11.0,13.0,86,0.00,,OVC037,0.00,VWS V14.01,2013-04-02 12:28:00,
2013-04-02 08:30:00,21.8,18.5,30.08,WNW,292,7.0,19.0,87,0.00,,,0.00,VWS V14.01,2013-04-02 12:30:00,
2013-04-02 08:33:00,21.9,18.4,30.07,WNW,292,12.0,19.0,86,0.00,,,0.00,VWS V14.01,2013-04-02 12:33:00,
2013-04-02 08:38:00,21.8,18.5,30.08,WNW,287,6.0,7.0,87,0.00,,,0.00,VWS V14.01,2013-04-02 12:38:00,
2013-04-02 08:40:00,21.9,18.9,30.08,WNW,299,10.0,12.0,88,0.00,,,0.00,VWS V14.01,2013-04-02 12:40:00,
2013-04-02 08:43:00,21.8,18.5,30.08,West,273,7.0,9.0,87,0.00,,,0.00,VWS V14.01,2013-04-02 12:43:00,
2013-04-02 08:48:00,21.9,18.9,30.08,WNW,299,5.0,11.0,88,0.00,,,0.00,VWS V14.01,2013-04-02 12:48:00,
2013-04-02 08:50:00,22.2,19.2,30.08,NW,314,7.0,15.0,88,0.00,,,0.00,VWS V14.01,2013-04-02 12:50:00,
2013-04-02 08:53:00,22.1,19.1,30.08,NW,315,6.0,15.0,88,0.00,,,0.00,VWS V14.01,2013-04-02 12:53:00,
2013-04-02 08:59:00,22.3,19.3,30.08,WNW,289,11.0,11.0,88,0.00,,,0.00,VWS V14.01,2013-04-02 12:59:00,
2013-04-02 09:00:00,22.2,18.9,30.08,WNW,295,12.0,15.0,87,0.00,,,0.00,VWS V14.01,2013-04-02 13:00:00,
2013-04-02 09:04:00,22.4,19.4,30.08,NW,317,10.0,12.0,88,0.00,,,0.00,VWS V14.01,2013-04-02 13:04:00,
2013-04-02 09:09:00,22.2,18.9,30.08,WNW,282,9.0,19.0,87,0.00,,,0.00,VWS V14.01,2013-04-02 13:09:00,
2013-04-02 09:10:00,22.7,19.1,30.08,West,273,16.0,19.0,86,0.00,,,0.00,VWS V14.01,2013-04-02 13:10:00,
2013-04-02 09:14:00,22.4,18.9,30.08,NW,318,13.0,19.0,86,0.00,,,0.00,VWS V14.01,2013-04-02 13:14:00,
2013-04-02 09:19:00,22.7,18.9,30.08,WNW,300,16.0,20.0,85,0.00,,,0.00,VWS V14.01,2013-04-02 13:19:00,
2013-04-02 09:20:00,23.2,18.8,30.08,West,276,15.0,20.0,83,0.00,,,0.00,VWS V14.01,2013-04-02 13:20:00,
2013-04-02 09:24:00,23.1,18.7,30.08,WNW,286,13.0,20.0,83,0.00,,,0.00,VWS V14.01,2013-04-02 13:24:00,
2013-04-02 09:29:00,23.1,18.4,30.08,WNW,286,7.0,15.0,82,0.00,,,0.00,VWS V14.01,2013-04-02 13:29:00,
2013-04-02 09:30:00,23.3,18.6,30.08,WNW,290,13.0,19.0,82,0.00,,,0.00,VWS V14.01,2013-04-02 13:30:00,
2013-04-02 09:34:00,23.3,18.9,30.08,WNW,294,7.0,15.0,83,0.00,,OVC035,0.00,VWS V14.01,2013-04-02 13:34:00,
2013-04-02 09:39:00,23.2,18.5,30.08,West,280,6.0,13.0,82,0.00,,OVC035,0.00,VWS V14.01,2013-04-02 13:39:00,
2013-04-02 09:40:00,22.7,18.9,30.08,WNW,288,17.0,17.0,85,0.00,,,0.00,VWS V14.01,2013-04-02 13:40:00,
2013-04-02 09:44:00,22.9,18.5,30.08,WNW,294,9.0,14.0,83,0.00,,OVC035,0.00,VWS V14.01,2013-04-02 13:44:00,
2013-04-02 09:49:00,22.4,18.6,30.08,WNW,300,20.0,20.0,85,0.00,,OVC035,0.00,VWS V14.01,2013-04-02 13:49:00,
2013-04-02 09:50:00,21.8,18.5,30.10,WNW,288,10.0,21.0,87,0.00,,,0.00,VWS V14.01,2013-04-02 13:50:00,
2013-04-02 09:54:00,21.8,18.5,30.10,West,267,7.0,21.0,87,0.00,,OVC035,0.00,VWS V14.01,2013-04-02 13:54:00,
2013-04-02 09:59:00,21.8,18.5,30.10,West,265,10.0,11.0,87,0.00,,OVC035,0.00,VWS V14.01,2013-04-02 13:59:00,
2013-04-02 10:00:00,21.6,18.6,30.10,NW,309,9.0,17.0,88,0.00,,,0.00,VWS V14.01,2013-04-02 14:00:00,
2013-04-02 10:04:00,21.7,18.7,30.10,NW,309,9.0,14.0,88,0.00,,,0.00,VWS V14.01,2013-04-02 14:04:00,
2013-04-02 10:09:00,21.6,18.6,30.10,West,273,6.0,17.0,88,0.00,,,0.00,VWS V14.01,2013-04-02 14:09:00,
2013-04-02 10:10:00,22.0,19.0,30.10,WNW,286,9.0,17.0,88,0.00,,,0.00,VWS V14.01,2013-04-02 14:10:00,
2013-04-02 10:14:00,21.9,18.9,30.10,WNW,286,6.0,17.0,88,0.00,,,0.00,VWS V14.01,2013-04-02 14:14:00,
2013-04-02 10:19:00,22.1,19.1,30.10,West,275,7.0,9.0,88,0.00,,,0.00,VWS V14.01,2013-04-02 14:19:00,
2013-04-02 10:20:00,22.8,19.0,30.10,WNW,303,10.0,17.0,85,0.00,,,0.00,VWS V14.01,2013-04-02 14:20:00,
2013-04-02 10:24:00,22.6,19.3,30.10,WNW,302,9.0,16.0,87,0.00,,,0.00,VWS V14.01,2013-04-02 14:24:00,
2013-04-02 10:29:00,23.0,19.2,30.10,WNW,294,6.0,10.0,85,0.00,,,0.00,VWS V14.01,2013-04-02 14:29:00,
2013-04-02 10:30:00,23.4,19.0,30.10,WNW,286,11.0,21.0,83,0.00,,,0.00,VWS V14.01,2013-04-02 14:30:00,
2013-04-02 10:34:00,23.4,19.3,30.10,WNW,296,16.0,21.0,84,0.00,,,0.00,VWS V14.01,2013-04-02 14:34:00,
2013-04-02 10:39:00,23.6,19.2,30.10,WNW,282,8.0,11.0,83,0.00,,,0.00,VWS V14.01,2013-04-02 14:39:00,
2013-04-02 10:40:00,23.9,19.2,30.10,WNW,302,12.0,14.0,82,0.00,,,0.00,VWS V14.01,2013-04-02 14:40:00,
2013-04-02 10:44:00,24.0,19.3,30.10,NW,315,12.0,14.0,82,0.00,,,0.00,VWS V14.01,2013-04-02 14:44:00,
2013-04-02 10:49:00,23.9,18.9,30.10,NW,310,11.0,15.0,81,0.00,,,0.00,VWS V14.01,2013-04-02 14:49:00,
2013-04-02 10:50:00,23.8,17.7,30.11,WNW,302,12.0,18.0,77,0.00,,,0.00,VWS V14.01,2013-04-02 14:50:00,
2013-04-02 10:54:00,23.4,17.6,30.11,WNW,290,16.0,18.0,78,0.00,,,0.00,VWS V14.01,2013-04-02 14:54:00,
2013-04-02 10:59:00,24.2,17.7,30.11,West,265,12.0,18.0,76,0.00,,,0.00,VWS V14.01,2013-04-02 14:59:00,
2013-04-02 11:00:00,24.8,16.8,30.10,WNW,293,14.0,18.0,71,0.00,,,0.00,VWS V14.01,2013-04-02 15:00:00,
2013-04-02 11:04:00,25.0,17.9,30.11,WNW,285,11.0,18.0,74,0.00,,OVC035,0.00,VWS V14.01,2013-04-02 15:04:00,
2013-04-02 11:09:00,25.1,17.4,30.10,WSW,250,17.0,19.0,72,0.00,,OVC035,0.00,VWS V14.01,2013-04-02 15:09:00,
2013-04-02 11:10:00,25.3,16.9,30.10,West,266,9.0,21.0,70,0.00,,,0.00,VWS V14.01,2013-04-02 15:10:00,
2013-04-02 11:14:00,25.3,17.2,30.10,WNW,301,10.0,21.0,71,0.00,,OVC035,0.00,VWS V14.01,2013-04-02 15:14:00,
2013-04-02 11:19:00,25.2,16.5,30.10,WNW,295,5.0,18.0,69,0.00,,OVC035,0.00,VWS V14.01,2013-04-02 15:19:00,
2013-04-02 11:20:00,25.7,16.3,30.10,West,270,14.0,22.0,67,0.00,,,0.00,VWS V14.01,2013-04-02 15:20:00,
2013-04-02 11:24:00,26.0,16.9,30.10,WSW,238,12.0,22.0,68,0.00,,OVC035,0.00,VWS V14.01,2013-04-02 15:24:00,
2013-04-02 11:29:00,25.5,15.4,30.10,WNW,301,13.0,22.0,65,0.00,,OVC035,0.00,VWS V14.01,2013-04-02 15:29:00,
2013-04-02 11:30:00,26.1,16.0,30.10,WNW,290,11.0,24.0,65,0.00,,,0.00,VWS V14.01,2013-04-02 15:30:00,
2013-04-02 11:34:00,25.5,15.4,30.10,WNW,303,12.0,24.0,65,0.00,,OVC035,0.00,VWS V14.01,2013-04-02 15:34:00,
2013-04-02 11:39:00,26.1,15.2,30.10,NW,305,15.0,19.0,63,0.00,,OVC035,0.00,VWS V14.01,2013-04-02 15:39:00,
2013-04-02 11:40:00,26.1,14.1,30.10,WNW,293,9.0,19.0,60,0.00,,,0.00,VWS V14.01,2013-04-02 15:40:00,
2013-04-02 11:45:00,26.7,15.8,30.10,WNW,283,12.0,19.0,63,0.00,,OVC035,0.00,VWS V14.01,2013-04-02 15:45:00,
2013-04-02 11:50:00,26.0,14.4,30.10,WNW,288,12.0,17.0,61,0.00,,OVC035,0.00,VWS V14.01,2013-04-02 15:50:00,
2013-04-02 11:55:00,26.6,15.0,30.10,NW,313,12.0,23.0,61,0.00,,OVC035,0.00,VWS V14.01,2013-04-02 15:55:00,
2013-04-02 12:00:00,27.3,15.6,30.10,West,259,10.0,20.0,61,0.00,,OVC035,0.00,VWS V14.01,2013-04-02 16:00:00,
2013-04-02 12:05:00,26.9,14.9,30.10,West,271,17.0,20.0,60,0.00,,BKN043,0.00,VWS V14.01,2013-04-02 16:05:00,
2013-04-02 12:10:00,26.9,14.1,30.10,West,280,20.0,23.0,58,0.00,,BKN043,0.00,VWS V14.01,2013-04-02 16:10:00,
2013-04-02 12:15:00,26.9,14.1,30.10,WNW,285,10.0,23.0,58,0.00,,BKN043,0.00,VWS V14.01,2013-04-02 16:15:00,
2013-04-02 12:20:00,27.4,15.7,30.10,WNW,296,14.0,20.0,61,0.00,,BKN043,0.00,VWS V14.01,2013-04-02 16:20:00,
2013-04-02 12:25:00,26.7,13.5,30.09,NNW,329,14.0,24.0,57,0.00,,BKN043,0.00,VWS V14.01,2013-04-02 16:25:00,
2013-04-02 12:30:00,27.5,14.3,30.09,West,273,17.0,17.0,57,0.00,,BKN043,0.00,VWS V14.01,2013-04-02 16:30:00,
2013-04-02 12:35:00,27.4,14.6,30.09,WNW,290,16.0,23.0,58,0.00,,BKN043,0.00,VWS V14.01,2013-04-02 16:35:00,
2013-04-02 12:40:00,27.4,14.2,30.09,NW,310,4.0,23.0,57,0.00,,BKN043,0.00,VWS V14.01,2013-04-02 16:40:00,
2013-04-02 12:45:00,27.7,14.5,30.09,WSW,240,16.0,23.0,57,0.00,,BKN043,0.00,VWS V14.01,2013-04-02 16:45:00,
2013-04-02 12:50:00,28.2,14.9,30.09,WSW,244,20.0,22.0,57,0.00,,BKN043,0.00,VWS V14.01,2013-04-02 16:50:00,
2013-04-02 12:55:00,28.2,14.9,30.09,West,280,9.0,24.0,57,0.00,,BKN043,0.00,VWS V14.01,2013-04-02 16:55:00,
2013-04-02 13:00:00,27.7,14.1,30.09,WNW,286,20.0,27.0,56,0.00,,BKN043,0.00,VWS V14.01,2013-04-02 17:00:00,
2013-04-02 13:05:00,27.8,14.2,30.09,SW,234,14.0,27.0,56,0.00,,OVC045,0.00,VWS V14.01,2013-04-02 17:05:00,
2013-04-02 13:10:00,27.9,13.8,30.09,WNW,288,21.0,28.0,55,0.00,,OVC045,0.00,VWS V14.01,2013-04-02 17:10:00,
2013-04-02 13:15:00,28.2,14.5,30.09,WNW,290,12.0,28.0,56,0.00,,OVC045,0.00,VWS V14.01,2013-04-02 17:15:00,
2013-04-02 13:20:00,28.7,14.6,30.09,West,274,13.0,26.0,55,0.00,,OVC045,0.00,VWS V14.01,2013-04-02 17:20:00,
2013-04-02 13:25:00,28.4,14.3,30.09,West,261,12.0,26.0,55,0.00,,OVC045,0.00,VWS V14.01,2013-04-02 17:25:00,
2013-04-02 13:30:00,29.2,15.9,30.09,WSW,249,18.0,20.0,57,0.00,,OVC045,0.00,VWS V14.01,2013-04-02 17:30:00,
2013-04-02 13:35:00,29.6,15.4,30.09,West,259,13.0,28.0,55,0.00,,OVC045,0.00,VWS V14.01,2013-04-02 17:35:00,
2013-04-02 13:40:00,29.2,13.3,30.08,West,279,14.0,32.0,51,0.00,,OVC045,0.00,VWS V14.01,2013-04-02 17:40:00,
2013-04-02 13:45:00,28.5,13.6,30.08,West,277,17.0,32.0,53,0.00,,OVC045,0.00,VWS V14.01,2013-04-02 17:45:00,
2013-04-02 13:50:00,28.6,13.6,30.08,WNW,296,10.0,19.0,53,0.00,,OVC045,0.00,VWS V14.01,2013-04-02 17:50:00,
2013-04-02 13:56:00,29.1,13.7,30.08,NW,320,26.0,26.0,52,0.00,,OVC045,0.00,VWS V14.01,2013-04-02 17:56:00,
2013-04-02 14:00:00,29.5,14.1,30.08,West,267,11.0,27.0,52,0.00,,,0.00,VWS V14.01,2013-04-02 18:00:00,
2013-04-02 14:01:00,29.6,14.6,30.08,West,263,17.0,27.0,53,0.00,,BKN043,0.00,VWS V14.01,2013-04-02 18:01:00,
2013-04-02 14:06:00,29.4,14.0,30.08,WNW,298,18.0,27.0,52,0.00,,BKN043,0.00,VWS V14.01,2013-04-02 18:06:00,
2013-04-02 14:10:00,30.5,16.3,30.08,WNW,293,9.0,30.0,55,0.00,,,0.00,VWS V14.01,2013-04-02 18:10:00,
2013-04-02 14:12:00,29.7,14.2,30.08,WNW,288,16.0,27.0,52,0.00,,BKN043,0.00,VWS V14.01,2013-04-02 18:12:00,
2013-04-02 14:17:00,30.3,16.1,30.08,West,272,12.0,30.0,55,0.00,,BKN043,0.00,VWS V14.01,2013-04-02 18:17:00,
2013-04-02 14:20:00,30.7,15.2,30.08,WNW,296,12.0,22.0,52,0.00,,,0.00,VWS V14.01,2013-04-02 18:20:00,
2013-04-02 14:22:00,30.2,13.4,30.08,WNW,302,12.0,20.0,49,0.00,,BKN043,0.00,VWS V14.01,2013-04-02 18:22:00,
2013-04-02 14:27:00,30.7,15.2,30.08,WSW,237,16.0,22.0,52,0.00,,BKN043,0.00,VWS V14.01,2013-04-02 18:27:00,
2013-04-02 14:30:00,30.7,15.2,30.07,WSW,249,14.0,22.0,52,0.00,,,0.00,VWS V14.01,2013-04-02 18:30:00,
2013-04-02 14:32:00,30.1,13.3,30.08,West,262,11.0,22.0,49,0.00,,BKN043,0.00,VWS V14.01,2013-04-02 18:32:00,
2013-04-02 14:37:00,30.6,14.6,30.07,WNW,295,10.0,22.0,51,0.00,,BKN043,0.00,VWS V14.01,2013-04-02 18:37:00,
2013-04-02 14:40:00,30.9,14.9,30.07,WNW,283,19.0,24.0,51,0.00,,,0.00,VWS V14.01,2013-04-02 18:40:00,
2013-04-02 14:42:00,30.7,13.8,30.07,WNW,286,17.0,22.0,49,0.00,,BKN043,0.00,VWS V14.01,2013-04-02 18:42:00,
2013-04-02 14:47:00,30.9,14.9,30.07,WNW,294,12.0,24.0,51,0.00,,BKN043,0.00,VWS V14.01,2013-04-02 18:47:00,
2013-04-02 14:50:00,30.5,13.6,30.08,WNW,282,4.0,27.0,49,0.00,,,0.00,VWS V14.01,2013-04-02 18:50:00,
2013-04-02 14:52:00,30.3,13.4,30.08,WNW,294,12.0,27.0,49,0.00,,BKN043,0.00,VWS V14.01,2013-04-02 18:52:00,
2013-04-02 14:57:00,30.5,13.6,30.08,WSW,250,5.0,27.0,49,0.00,,BKN043,0.00,VWS V14.01,2013-04-02 18:57:00,
2013-04-02 15:00:00,31.3,13.9,30.06,WNW,303,19.0,23.0,48,0.00,,,0.00,VWS V14.01,2013-04-02 19:00:00,
2013-04-02 15:02:00,31.1,13.7,30.08,WNW,288,11.0,22.0,48,0.00,,SCT045,0.00,VWS V14.01,2013-04-02 19:02:00,
2013-04-02 15:07:00,31.3,14.4,30.06,WNW,300,17.0,23.0,49,0.00,,SCT045,0.00,VWS V14.01,2013-04-02 19:07:00,
2013-04-02 15:10:00,31.8,14.4,30.06,WNW,295,24.0,26.0,48,0.00,,,0.00,VWS V14.01,2013-04-02 19:10:00,
2013-04-02 15:12:00,31.9,14.9,30.06,West,281,11.0,25.0,49,0.00,,SCT045,0.00,VWS V14.01,2013-04-02 19:12:00,
2013-04-02 15:17:00,31.8,14.4,30.06,WNW,290,24.0,25.0,48,0.00,,SCT045,0.00,VWS V14.01,2013-04-02 19:17:00,
2013-04-02 15:20:00,32.2,15.7,30.06,WNW,287,13.0,26.0,50,0.00,,,0.00,VWS V14.01,2013-04-02 19:20:00,
2013-04-02 15:22:00,32.0,15.0,30.06,WSW,245,15.0,26.0,49,0.00,,SCT045,0.00,VWS V14.01,2013-04-02 19:22:00,
2013-04-02 15:27:00,32.2,15.7,30.06,West,262,11.0,13.0,50,0.00,,SCT045,0.00,VWS V14.01,2013-04-02 19:27:00,
2013-04-02 15:30:00,32.2,14.2,30.06,WSW,246,15.0,29.0,47,0.00,,,0.00,VWS V14.01,2013-04-02 19:30:00,
2013-04-02 15:32:00,31.9,14.9,30.06,NW,306,17.0,29.0,49,0.00,,SCT045,0.00,VWS V14.01,2013-04-02 19:32:00,
2013-04-02 15:38:00,32.1,14.2,30.06,West,275,13.0,22.0,47,0.00,,SCT045,0.00,VWS V14.01,2013-04-02 19:38:00,
2013-04-02 15:40:00,32.7,14.2,30.06,NW,317,16.0,27.0,46,0.00,,,0.00,VWS V14.01,2013-04-02 19:40:00,
2013-04-02 15:43:00,32.6,16.0,30.06,West,267,16.0,27.0,50,0.00,,SCT045,0.00,VWS V14.01,2013-04-02 19:43:00,
2013-04-02 15:48:00,32.6,14.6,30.06,WNW,302,12.0,19.0,47,0.00,,SCT045,0.00,VWS V14.01,2013-04-02 19:48:00,
2013-04-02 15:53:00,32.3,13.9,30.06,NW,325,10.0,27.0,46,0.00,,SCT045,0.00,VWS V14.01,2013-04-02 19:53:00,
2013-04-02 15:58:00,33.3,15.7,30.06,NW,306,16.0,18.0,48,0.00,,SCT045,0.00,VWS V14.01,2013-04-02 19:58:00,
2013-04-02 16:00:00,33.3,14.8,30.05,WNW,294,16.0,25.0,46,0.00,,,0.00,VWS V14.01,2013-04-02 20:00:00,
2013-04-02 16:03:00,33.0,15.5,30.06,NNW,329,7.0,24.0,48,0.00,,OVC049,0.00,VWS V14.01,2013-04-02 20:03:00,
2013-04-02 16:08:00,33.0,14.5,30.05,WNW,287,16.0,23.0,46,0.00,,OVC049,0.00,VWS V14.01,2013-04-02 20:08:00,
2013-04-02 16:10:00,32.9,15.4,30.05,West,268,15.0,30.0,48,0.00,,,0.00,VWS V14.01,2013-04-02 20:10:00,
2013-04-02 16:13:00,32.4,13.9,30.05,NW,309,21.0,30.0,46,0.00,,OVC049,0.00,VWS V14.01,2013-04-02 20:13:00,
2013-04-02 16:18:00,32.9,14.4,30.05,West,281,20.0,23.0,46,0.00,,OVC049,0.00,VWS V14.01,2013-04-02 20:18:00,
2013-04-02 16:20:00,33.0,15.0,30.05,WNW,291,19.0,25.0,47,0.00,,,0.00,VWS V14.01,2013-04-02 20:20:00,
2013-04-02 16:23:00,32.8,14.8,30.05,WSW,242,20.0,25.0,47,0.00,,OVC049,0.00,VWS V14.01,2013-04-02 20:23:00,
2013-04-02 16:28:00,33.0,14.5,30.05,West,272,12.0,23.0,46,0.00,,OVC049,0.00,VWS V14.01,2013-04-02 20:28:00,
2013-04-02 16:30:00,33.4,14.4,30.06,West,277,10.0,27.0,45,0.00,,,0.00,VWS V14.01,2013-04-02 20:30:00,
2013-04-02 16:33:00,33.3,13.8,30.05,West,272,14.0,24.0,44,0.00,,OVC049,0.00,VWS V14.01,2013-04-02 20:33:00,
2013-04-02 16:38:00,33.4,14.4,30.06,NW,321,12.0,23.0,45,0.00,,OVC049,0.00,VWS V14.01,2013-04-02 20:38:00,
2013-04-02 16:40:00,33.2,13.7,30.06,WNW,290,17.0,32.0,44,0.00,,,0.00,VWS V14.01,2013-04-02 20:40:00,
2013-04-02 16:43:00,33.5,14.9,30.06,West,275,16.0,23.0,46,0.00,,OVC049,0.00,VWS V14.01,2013-04-02 20:43:00,
2013-04-02 16:48:00,33.1,13.6,30.06,WNW,287,17.0,19.0,44,0.00,,OVC049,0.00,VWS V14.01,2013-04-02 20:48:00,
2013-04-02 16:50:00,33.1,14.1,30.06,West,277,21.0,28.0,45,0.00,,,0.00,VWS V14.01,2013-04-02 20:50:00,
2013-04-02 16:53:00,33.0,13.5,30.06,WNW,288,13.0,28.0,44,0.00,,OVC049,0.00,VWS V14.01,2013-04-02 20:53:00,
2013-04-02 16:58:00,33.1,13.6,30.06,WNW,298,20.0,22.0,44,0.00,,OVC049,0.00,VWS V14.01,2013-04-02 20:58:00,
2013-04-02 17:00:00,33.3,14.3,30.06,West,274,18.0,25.0,45,0.00,,,0.00,VWS V14.01,2013-04-02 21:00:00,
2013-04-02 17:03:00,33.4,14.4,30.06,SW,236,15.0,24.0,45,0.00,,BKN049,0.00,VWS V14.01,2013-04-02 21:03:00,
2013-04-02 17:09:00,33.2,13.7,30.06,WNW,287,28.0,28.0,44,0.00,,BKN049,0.00,VWS V14.01,2013-04-02 21:09:00,
2013-04-02 17:10:00,32.9,14.4,30.06,WNW,287,14.0,28.0,46,0.00,,,0.00,VWS V14.01,2013-04-02 21:10:00,
2013-04-02 17:14:00,32.7,14.2,30.06,WNW,285,17.0,28.0,46,0.00,,BKN049,0.00,VWS V14.01,2013-04-02 21:14:00,
2013-04-02 17:19:00,33.1,14.1,30.06,NW,305,16.0,24.0,45,0.00,,BKN049,0.00,VWS V14.01,2013-04-02 21:19:00,
2013-04-02 17:20:00,32.8,14.3,30.06,West,281,11.0,28.0,46,0.00,,,0.00,VWS V14.01,2013-04-02 21:20:00,
2013-04-02 17:24:00,32.6,13.6,30.06,West,277,19.0,28.0,45,0.00,,BKN049,0.00,VWS V14.01,2013-04-02 21:24:00,
2013-04-02 17:29:00,33.1,14.6,30.06,WNW,294,11.0,16.0,46,0.00,,BKN049,0.00,VWS V14.01,2013-04-02 21:29:00,
2013-04-02 17:30:00,33.1,14.1,30.07,WNW,300,19.0,26.0,45,0.00,,,0.00,VWS V14.01,2013-04-02 21:30:00,
2013-04-02 17:34:00,33.5,14.9,30.06,WSW,250,11.0,20.0,46,0.00,,BKN049,0.00,VWS V14.01,2013-04-02 21:34:00,
2013-04-02 17:39:00,32.7,13.2,30.07,WNW,291,13.0,24.0,44,0.00,,BKN049,0.00,VWS V14.01,2013-04-02 21:39:00,
2013-04-02 17:40:00,32.1,13.7,30.07,NW,311,14.0,26.0,46,0.00,,,0.00,VWS V14.01,2013-04-02 21:40:00,
2013-04-02 17:44:00,32.3,14.3,30.07,NW,312,17.0,24.0,47,0.00,,BKN049,0.00,VWS V14.01,2013-04-02 21:44:00,
2013-04-02 17:49:00,32.1,13.7,30.07,WNW,291,17.0,20.0,46,0.00,,BKN049,0.00,VWS V14.01,2013-04-02 21:49:00,
2013-04-02 17:50:00,32.7,14.7,30.08,WNW,296,10.0,20.0,47,0.00,,,0.00,VWS V14.01,2013-04-02 21:50:00,
2013-04-02 17:54:00,32.1,14.2,30.08,WNW,294,8.0,20.0,47,0.00,,BKN049,0.00,VWS V14.01,2013-04-02 21:54:00,
2013-04-02 17:59:00,32.9,14.4,30.08,NW,307,18.0,28.0,46,0.00,,BKN049,0.00,VWS V14.01,2013-04-02 21:59:00,
2013-04-02 18:00:00,32.9,14.4,30.07,West,280,16.0,28.0,46,0.00,,,0.00,VWS V14.01,2013-04-02 22:00:00,
2013-04-02 18:04:00,33.0,14.0,30.08,WNW,300,14.0,28.0,45,0.00,,BKN055,0.00,VWS V14.01,2013-04-02 22:04:00,
2013-04-02 18:09:00,32.6,13.6,30.07,West,263,17.0,22.0,45,0.00,,BKN055,0.00,VWS V14.01,2013-04-02 22:09:00,
2013-04-02 18:10:00,31.9,14.0,30.07,WNW,286,19.0,23.0,47,0.00,,,0.00,VWS V14.01,2013-04-02 22:10:00,
2013-04-02 18:14:00,32.2,14.2,30.07,NW,317,12.0,23.0,47,0.00,,BKN055,0.00,VWS V14.01,2013-04-02 22:14:00,
2013-04-02 18:19:00,31.9,13.5,30.07,West,269,11.0,26.0,46,0.00,,BKN055,0.00,VWS V14.01,2013-04-02 22:19:00,
2013-04-02 18:20:00,31.9,14.4,30.08,WNW,294,13.0,26.0,48,0.00,,,0.00,VWS V14.01,2013-04-02 22:20:00,
2013-04-02 18:24:00,31.9,14.0,30.08,WNW,286,9.0,26.0,47,0.00,,BKN055,0.00,VWS V14.01,2013-04-02 22:24:00,
2013-04-02 18:29:00,32.0,14.1,30.08,NW,304,12.0,16.0,47,0.00,,BKN055,0.00,VWS V14.01,2013-04-02 22:29:00,
2013-04-02 18:30:00,32.1,14.2,30.09,NW,314,11.0,26.0,47,0.00,,,0.00,VWS V14.01,2013-04-02 22:30:00,
2013-04-02 18:34:00,32.1,14.6,30.08,WNW,300,9.0,26.0,48,0.00,,BKN055,0.00,VWS V14.01,2013-04-02 22:34:00,
2013-04-02 18:39:00,32.0,14.1,30.09,West,276,16.0,17.0,47,0.00,,BKN055,0.00,VWS V14.01,2013-04-02 22:39:00,
2013-04-02 18:40:00,31.9,14.4,30.09,NW,321,9.0,17.0,48,0.00,,,0.00,VWS V14.01,2013-04-02 22:40:00,
2013-04-02 18:44:00,31.9,14.4,30.09,WNW,287,6.0,17.0,48,0.00,,BKN055,0.00,VWS V14.01,2013-04-02 22:44:00,
2013-04-02 18:49:00,31.9,14.4,30.09,WNW,284,14.0,18.0,48,0.00,,BKN055,0.00,VWS V14.01,2013-04-02 22:49:00,
2013-04-02 18:50:00,31.7,14.3,30.09,WNW,291,16.0,19.0,48,0.00,,,0.00,VWS V14.01,2013-04-02 22:50:00,
2013-04-02 18:54:00,31.7,14.3,30.09,WNW,300,6.0,18.0,48,0.00,,BKN055,0.00,VWS V14.01,2013-04-02 22:54:00,
2013-04-02 18:59:00,31.7,14.3,30.09,NW,306,14.0,16.0,48,0.00,,BKN055,0.00,VWS V14.01,2013-04-02 22:59:00,
2013-04-02 19:00:00,31.9,14.4,30.10,NW,309,7.0,16.0,48,0.00,,,0.00,VWS V14.01,2013-04-02 23:00:00,
2013-04-02 19:04:00,31.7,14.3,30.09,West,267,6.0,16.0,48,0.00,,BKN055,0.00,VWS V14.01,2013-04-02 23:04:00,
2013-04-02 19:09:00,32.0,14.6,30.10,West,265,7.0,17.0,48,0.00,,BKN055,0.00,VWS V14.01,2013-04-02 23:09:00,
2013-04-02 19:10:00,31.8,13.9,30.10,NW,306,11.0,19.0,47,0.00,,,0.00,VWS V14.01,2013-04-02 23:10:00,
2013-04-02 19:14:00,32.0,14.6,30.10,WNW,292,15.0,19.0,48,0.00,,BKN055,0.00,VWS V14.01,2013-04-02 23:14:00,
2013-04-02 19:19:00,31.7,14.3,30.10,WNW,294,13.0,19.0,48,0.00,,BKN055,0.00,VWS V14.01,2013-04-02 23:19:00,
2013-04-02 19:20:00,31.6,13.7,30.10,NNW,332,12.0,19.0,47,0.00,,,0.00,VWS V14.01,2013-04-02 23:20:00,
2013-04-02 19:24:00,31.6,14.2,30.10,WNW,300,7.0,19.0,48,0.00,,BKN055,0.00,VWS V14.01,2013-04-02 23:24:00,
2013-04-02 19:29:00,31.6,14.2,30.10,NW,318,13.0,16.0,48,0.00,,BKN055,0.00,VWS V14.01,2013-04-02 23:29:00,
2013-04-02 19:30:00,31.4,14.5,30.10,NW,308,9.0,18.0,49,0.00,,,0.00,VWS V14.01,2013-04-02 23:30:00,
2013-04-02 19:35:00,31.4,14.5,30.10,West,269,16.0,17.0,49,0.00,,OVC055,0.00,VWS V14.01,2013-04-02 23:35:00,
2013-04-02 19:40:00,31.3,14.4,30.10,WNW,299,7.0,11.0,49,0.00,,OVC055,0.00,VWS V14.01,2013-04-02 23:40:00,
2013-04-02 19:45:00,31.1,14.2,30.10,WNW,293,9.0,16.0,49,0.00,,OVC055,0.00,VWS V14.01,2013-04-02 23:45:00,
2013-04-02 19:50:00,31.1,14.2,30.10,NW,307,7.0,16.0,49,0.00,,OVC055,0.00,VWS V14.01,2013-04-02 23:50:00,
2013-04-02 19:55:00,31.0,14.1,30.11,NW,308,12.0,18.0,49,0.00,,OVC055,0.00,VWS V14.01,2013-04-02 23:55:00,
2013-04-02 20:00:00,30.9,14.5,30.11,WNW,299,11.0,16.0,50,0.00,,OVC055,0.00,VWS V14.01,2013-04-03 00:00:00,
2013-04-02 20:05:00,30.8,14.4,30.11,NW,311,9.0,16.0,50,0.00,,OVC060,0.00,VWS V14.01,2013-04-03 00:05:00,
2013-04-02 20:10:00,30.8,14.4,30.11,WNW,303,7.0,13.0,50,0.00,,OVC060,0.00,VWS V14.01,2013-04-03 00:10:00,
2013-04-02 20:15:00,30.8,14.8,30.11,WNW,291,5.0,13.0,51,0.00,,OVC060,0.00,VWS V14.01,2013-04-03 00:15:00,
2013-04-02 20:20:00,30.7,14.3,30.11,WNW,287,14.0,14.0,50,0.00,,OVC060,0.00,VWS V14.01,2013-04-03 00:20:00,
2013-04-02 20:25:00,30.5,14.5,30.12,WNW,290,8.0,14.0,51,0.00,,OVC060,0.00,VWS V14.01,2013-04-03 00:25:00,
2013-04-02 20:30:00,30.7,14.7,30.12,WNW,296,6.0,15.0,51,0.00,,OVC060,0.00,VWS V14.01,2013-04-03 00:30:00,
2013-04-02 20:35:00,30.5,14.5,30.12,West,279,9.0,15.0,51,0.00,,OVC060,0.00,VWS V14.01,2013-04-03 00:35:00,
2013-04-02 20:40:00,30.4,14.4,30.12,WNW,296,6.0,14.0,51,0.00,,,0.00,VWS V14.01,2013-04-03 00:40:00,
2013-04-02 20:41:00,30.6,14.6,30.12,WNW,294,5.0,14.0,51,0.00,,OVC060,0.00,VWS V14.01,2013-04-03 00:41:00,
2013-04-02 20:46:00,30.5,14.5,30.12,WNW,284,7.0,14.0,51,0.00,,OVC060,0.00,VWS V14.01,2013-04-03 00:46:00,
2013-04-02 20:50:00,30.3,14.4,30.14,West,259,10.0,12.0,51,0.00,,,0.00,VWS V14.01,2013-04-03 00:50:00,
2013-04-02 20:51:00,30.3,14.8,30.12,WNW,292,9.0,12.0,52,0.00,,OVC060,0.00,VWS V14.01,2013-04-03 00:51:00,
2013-04-02 20:56:00,30.4,14.4,30.14,WNW,288,4.0,12.0,51,0.00,,OVC060,0.00,VWS V14.01,2013-04-03 00:56:00,
2013-04-02 21:00:00,30.3,14.4,30.14,WNW,288,6.0,14.0,51,0.00,,,0.00,VWS V14.01,2013-04-03 01:00:00,
2013-04-02 21:01:00,30.4,14.4,30.14,NW,321,12.0,12.0,51,0.00,,OVC060,0.00,VWS V14.01,2013-04-03 01:01:00,
2013-04-02 21:06:00,30.3,14.4,30.14,West,278,13.0,14.0,51,0.00,,OVC060,0.00,VWS V14.01,2013-04-03 01:06:00,
2013-04-02 21:10:00,30.1,14.6,30.14,WNW,298,4.0,12.0,52,0.00,,,0.00,VWS V14.01,2013-04-03 01:10:00,
2013-04-02 21:11:00,30.3,14.4,30.14,WNW,302,3.0,12.0,51,0.00,,OVC060,0.00,VWS V14.01,2013-04-03 01:11:00,
2013-04-02 21:16:00,30.1,14.6,30.14,WNW,298,4.0,12.0,52,0.00,,OVC060,0.00,VWS V14.01,2013-04-03 01:16:00,
2013-04-02 21:20:00,30.3,14.4,30.14,WNW,302,6.0,14.0,51,0.00,,,0.00,VWS V14.01,2013-04-03 01:20:00,
2013-04-02 21:21:00,30.3,14.8,30.14,WNW,288,5.0,12.0,52,0.00,,OVC060,0.00,VWS V14.01,2013-04-03 01:21:00,
2013-04-02 21:26:00,30.3,14.4,30.14,WNW,286,7.0,14.0,51,0.00,,OVC060,0.00,VWS V14.01,2013-04-03 01:26:00,
2013-04-02 21:30:00,30.2,14.7,30.15,WNW,294,6.0,15.0,52,0.00,,,0.00,VWS V14.01,2013-04-03 01:30:00,
2013-04-02 21:32:00,30.2,14.7,30.14,WNW,284,5.0,15.0,52,0.00,,OVC060,0.00,VWS V14.01,2013-04-03 01:32:00,
2013-04-02 21:37:00,30.2,14.7,30.15,West,279,9.0,15.0,52,0.00,,OVC060,0.00,VWS V14.01,2013-04-03 01:37:00,
2013-04-02 21:40:00,30.1,14.6,30.15,West,280,11.0,13.0,52,0.00,,,0.00,VWS V14.01,2013-04-03 01:40:00,
2013-04-02 21:42:00,30.1,14.6,30.15,WNW,284,6.0,13.0,52,0.00,,OVC060,0.00,VWS V14.01,2013-04-03 01:42:00,
2013-04-02 21:47:00,30.1,14.6,30.15,WNW,286,6.0,13.0,52,0.00,,OVC060,0.00,VWS V14.01,2013-04-03 01:47:00,
2013-04-02 21:50:00,30.0,14.1,30.15,WNW,284,14.0,15.0,51,0.00,,,0.00,VWS V14.01,2013-04-03 01:50:00,
2013-04-02 21:52:00,30.0,14.5,30.15,WNW,283,10.0,12.0,52,0.00,,OVC060,0.00,VWS V14.01,2013-04-03 01:52:00,
2013-04-02 21:57:00,30.0,14.1,30.15,WNW,289,10.0,15.0,51,0.00,,OVC060,0.00,VWS V14.01,2013-04-03 01:57:00,
2013-04-02 22:00:00,29.9,14.0,30.15,NW,310,9.0,15.0,51,0.00,,,0.00,VWS V14.01,2013-04-03 02:00:00,
2013-04-02 22:02:00,30.0,14.1,30.15,West,267,7.0,15.0,51,0.00,,BKN060,0.00,VWS V14.01,2013-04-03 02:02:00,
2013-04-02 22:07:00,29.9,14.0,30.15,NW,317,7.0,15.0,51,0.00,,BKN060,0.00,VWS V14.01,2013-04-03 02:07:00,
2013-04-02 22:10:00,29.7,14.2,30.15,WNW,300,6.0,12.0,52,0.00,,,0.00,VWS V14.01,2013-04-03 02:10:00,
2013-04-02 22:12:00,29.8,14.3,30.15,WNW,295,5.0,9.0,52,0.00,,BKN060,0.00,VWS V14.01,2013-04-03 02:12:00,
2013-04-02 22:17:00,29.7,14.2,30.15,WNW,300,6.0,12.0,52,0.00,,BKN060,0.00,VWS V14.01,2013-04-03 02:17:00,
2013-04-02 22:20:00,29.6,14.1,30.15,WNW,282,5.0,13.0,52,0.00,,,0.00,VWS V14.01,2013-04-03 02:20:00,
2013-04-02 22:22:00,29.7,14.2,30.15,NNW,327,5.0,13.0,52,0.00,,BKN060,0.00,VWS V14.01,2013-04-03 02:22:00,
2013-04-02 22:27:00,29.6,14.1,30.15,West,281,6.0,6.0,52,0.00,,BKN060,0.00,VWS V14.01,2013-04-03 02:27:00,
2013-04-02 22:30:00,29.2,14.2,30.15,NW,324,2.0,9.0,53,0.00,,,0.00,VWS V14.01,2013-04-03 02:30:00,
2013-04-02 22:32:00,29.4,14.0,30.15,WNW,290,4.0,9.0,52,0.00,,BKN060,0.00,VWS V14.01,2013-04-03 02:32:00,
2013-04-02 22:38:00,29.2,14.2,30.15,WNW,291,5.0,5.0,53,0.00,,BKN060,0.00,VWS V14.01,2013-04-03 02:38:00,
2013-04-02 22:40:00,29.3,13.9,30.15,WNW,286,5.0,11.0,52,0.00,,,0.00,VWS V14.01,2013-04-03 02:40:00,
2013-04-02 22:43:00,29.3,14.3,30.15,WNW,293,6.0,11.0,53,0.00,,BKN060,0.00,VWS V14.01,2013-04-03 02:43:00,
2013-04-02 22:48:00,29.3,13.9,30.15,WNW,290,6.0,6.0,52,0.00,,BKN060,0.00,VWS V14.01,2013-04-03 02:48:00,
2013-04-02 22:50:00,29.2,14.2,30.15,WNW,294,5.0,11.0,53,0.00,,,0.00,VWS V14.01,2013-04-03 02:50:00,
2013-04-02 22:53:00,29.2,14.2,30.15,WNW,286,5.0,11.0,53,0.00,,BKN060,0.00,VWS V14.01,2013-04-03 02:53:00,
2013-04-02 22:58:00,29.2,14.2,30.15,WNW,284,6.0,7.0,53,0.00,,BKN060,0.00,VWS V14.01,2013-04-03 02:58:00,
2013-04-02 23:00:00,29.1,14.1,30.15,NW,305,8.0,11.0,53,0.00,,,0.00,VWS V14.01,2013-04-03 03:00:00,
2013-04-02 23:03:00,29.2,14.2,30.15,WNW,289,5.0,11.0,53,0.00,,FEW060,0.00,VWS V14.01,2013-04-03 03:03:00,
2013-04-02 23:08:00,29.1,14.1,30.15,WNW,283,4.0,8.0,53,0.00,,FEW060,0.00,VWS V14.01,2013-04-03 03:08:00,
2013-04-02 23:10:00,29.1,13.7,30.15,WNW,290,5.0,10.0,52,0.00,,,0.00,VWS V14.01,2013-04-03 03:10:00,
2013-04-02 23:13:00,29.0,14.0,30.15,WNW,285,3.0,8.0,53,0.00,,FEW060,0.00,VWS V14.01,2013-04-03 03:13:00,
2013-04-02 23:18:00,29.1,14.1,30.15,West,281,7.0,9.0,53,0.00,,FEW060,0.00,VWS V14.01,2013-04-03 03:18:00,
2013-04-02 23:20:00,28.9,13.9,30.14,WNW,294,10.0,12.0,53,0.00,,,0.00,VWS V14.01,2013-04-03 03:20:00,
2013-04-02 23:23:00,29.0,13.6,30.14,WNW,300,4.0,9.0,52,0.00,,FEW060,0.00,VWS V14.01,2013-04-03 03:23:00,
2013-04-02 23:29:00,29.0,13.6,30.14,West,281,6.0,10.0,52,0.00,,FEW060,0.00,VWS V14.01,2013-04-03 03:29:00,
2013-04-02 23:30:00,28.9,13.9,30.14,WNW,299,9.0,11.0,53,0.00,,,0.00,VWS V14.01,2013-04-03 03:30:00,
2013-04-02 23:34:00,28.9,13.9,30.14,WNW,294,6.0,10.0,53,0.00,,FEW060,0.00,VWS V14.01,2013-04-03 03:34:00,
2013-04-02 23:39:00,29.0,13.6,30.14,WNW,302,6.0,11.0,52,0.00,,FEW060,0.00,VWS V14.01,2013-04-03 03:39:00,
2013-04-02 23:40:00,29.0,13.6,30.14,West,281,5.0,11.0,52,0.00,,,0.00,VWS V14.01,2013-04-03 03:40:00,
2013-04-02 23:44:00,29.0,13.6,30.14,West,281,6.0,11.0,52,0.00,,FEW060,0.00,VWS V14.01,2013-04-03 03:44:00,
2013-04-02 23:49:00,28.9,13.5,30.14,West,280,5.0,8.0,52,0.00,,FEW060,0.00,VWS V14.01,2013-04-03 03:49:00,
2013-04-02 23:50:00,28.7,13.3,30.14,West,270,6.0,10.0,52,0.00,,,0.00,VWS V14.01,2013-04-03 03:50:00,
2013-04-02 23:54:00,28.8,13.4,30.14,West,266,6.0,10.0,52,0.00,,FEW060,0.00,VWS V14.01,2013-04-03 03:54:00,
2013-04-02 23:59:00,28.6,13.6,30.14,West,279,4.0,7.0,53,0.00,,FEW060,0.00,VWS V14.01,2013-04-03 03:59:00,